Weather in Gremuchy

Russia / Krasnoyarsk Krai     58°24′24″N   97°26′25″E
temp.,
°C
wind,
m/s
gust,
m/s
humid.,
%
clouds,
%
prec.,
mm/h
press.,
hPa
HPBL,
m
9 may, sun
sun901:00+2ne119467 0.0 101110
04:00+2ne1194100 0.0 101121
07:00+4n2387100 0.0 1012360
10:00+7ne2375100 0.1 1012863
13:00+8ne3468100 0.1 10131107
16:00+8ne367097 0.1 1014940
19:00+7nne3682100 0.1 1015504
22:00+5nnw2693100 0.0 1017219
10 may, mon
mon1001:00+3nnw22977 0.0 101825
04:00+2nnw229511 0.0 101916
07:00+6n25765 0.0 1020339
10:00+12ne37515 0.0 10211262
13:00+13ne4638100 0.1 10202253
16:00+14nne453988 0.0 10202063
19:00+13ne235520 0.0 102195
22:00+7ene117537 0.1 102210
11 may, tue
tue1101:00+5nne118364 0.1 102212
04:00+4ese228879 0.0 102225
07:00+7e237598 0.0 1022267
10:00+11e225784 0.1 10211078
13:00+11ne3359100 0.2 10211408
16:00+10ne556789 0.1 10211017
19:00+7ene467297 0.1 1022974
22:00+4nne229083 0.0 102244
12 may, wed
wed1201:00+3ene411715 0.1 1022436
04:00−1nne23855 0.0 102277
07:00+3ne36624 0.0 1023476
10:00+7ne354211 0.0 10211587
13:00+10ne353390 0.0 10202214
16:00+11ne3529100 0.0 10192557
19:00+9ene35385 0.0 1019483
22:00+4e11552 0.0 102010
13 may, thu
thu1301:00+2sse00600 0.0 102110
04:00+1sw11660 0.0 102110
07:00+6ssw12490 0.0 1021203
10:00+11wsw34335 0.0 10191591
13:00+14sw342764 0.0 10162290
16:00+15sw462680 0.0 10132655
19:00+13sw483487 0.0 1012525
22:00+8s31151100 0.0 1011264